Peoria, IL

3:09 PM CST on November 12, 2019 (GMT -0600)
Greater Peoria Regional

Weather History for KPIA - September, 2019

Change the Weather History Date:

Monday, September 30, 2019

  Actual Average Record
Temperature  
Mean Temperature 78 °F 60 °F  
Max Temperature 88 °F 71 °F 91 °F (1933)
Min Temperature 68 °F 49 °F 26 °F (1899)
Degree Days  
Heating Degree Days 0 7  
Month to date heating degree days 85  
Since 1 July heating degree days 90  
Cooling Degree Days 12 2  
Month to date cooling degree days 117  
Year to date cooling degree days 1024  
Growing Degree Days 28 (Base 50)    
Moisture  
Dew Point 67 °F    
Average Humidity 74    
Maximum Humidity 93    
Minimum Humidity 55    
Precipitation  
Precipitation 0.00 in 0.09 in 1.63 in (1925)
Month to date precipitation 3.15  
Year to date precipitation 28.10  
Snow  
Snow - 0.00 in 0.00 in ()
Month to date snowfall 0.0  
Since 1 July snowfall 0.0  
Since 1 September snowfall 0.0  
Snow Depth -    
Sea Level Pressure  
Sea Level Pressure 30.00 in    
Wind  
Wind Speed 6 mph ()    
Max Wind Speed 14 mph    
Max Gust Speed -    
Visibility 9.9 miles    
Events      
T = Trace of Precipitation, MM = Missing Value Source: Averaged Metar Reports

Daily Weather History Graph

Daily Weather History Graph

Search for Another Location

Airport or City:

Astronomy

Sep. 30, 2019 Rise Set
Actual Time 6:54 AM CDT 6:42 PM CDT
Civil Twilight 6:26 AM CDT 7:10 PM CDT
Nautical Twilight 5:55 AM CDT 7:41 PM CDT
Astronomical Twilight 5:22 AM CDT 8:13 PM CDT
Moon 8:58 AM CDT (9/30) 8:17 PM CDT (9/30)
Length of Visible Light 12h 43m
Length of Day
11h 48m
Waxing Crescent, 6% of the Moon is Illuminated
Sep 30
Waxing Crescent
Oct 5
First Quarter
Oct 13
Full
Oct 21
Last Quarter
Oct 27
New

Hourly Weather History & Observations

Time (CDT) Temp. Heat Index Dew Point Humidity Pressure Visibility Wind Dir Wind Speed Gust Speed Precip Events Conditions
12:54 AM 69.1 °F - 66.9 °F 93% 30.04 in 10.0 mi Calm Calm - N/A   Clear
1:54 AM 69.1 °F - 66.9 °F 93% 30.04 in 10.0 mi South 4.6 mph - N/A   Clear
2:54 AM 69.1 °F - 66.9 °F 93% 30.03 in 9.0 mi South 4.6 mph - N/A   Clear
3:54 AM 70.0 °F - 66.9 °F 90% 30.03 in 10.0 mi South 3.5 mph - N/A   Clear
4:54 AM 69.1 °F - 66.0 °F 90% 30.04 in 10.0 mi South 4.6 mph - N/A   Clear
5:54 AM 69.1 °F - 66.0 °F 90% 30.04 in 10.0 mi SSW 4.6 mph - N/A   Clear
6:54 AM 68.0 °F - 64.9 °F 90% 30.04 in 9.0 mi South 3.5 mph - N/A   Clear
7:54 AM 71.1 °F - 66.0 °F 84% 30.05 in 10.0 mi South 5.8 mph - N/A   Mostly Cloudy
8:54 AM 72.0 °F - 66.9 °F 84% 30.05 in 10.0 mi South 8.1 mph - N/A   Overcast
9:54 AM 75.0 °F - 68.0 °F 79% 30.05 in 10.0 mi South 10.4 mph - N/A   Overcast
10:54 AM 79.0 °F - 70.0 °F 74% 30.04 in 10.0 mi South 11.5 mph - N/A   Overcast
11:54 AM 82.0 °F 85.9 °F 70.0 °F 67% 30.02 in 10.0 mi SSW 10.4 mph - N/A   Partly Cloudy
12:54 PM 84.9 °F 88.8 °F 69.1 °F 59% 29.99 in 10.0 mi SW 13.8 mph - N/A   Clear
1:54 PM 87.1 °F 91.3 °F 69.1 °F 55% 29.97 in 10.0 mi WSW 12.7 mph - N/A   Clear
2:54 PM 84.9 °F 88.8 °F 69.1 °F 59% 29.96 in 10.0 mi SW 10.4 mph - N/A   Clear
3:54 PM 87.1 °F 91.3 °F 69.1 °F 55% 29.94 in 10.0 mi SW 12.7 mph - N/A   Clear
4:54 PM 84.9 °F 87.6 °F 66.9 °F 55% 29.94 in 10.0 mi SW 12.7 mph - N/A   Clear
5:54 PM 84.0 °F 86.5 °F 66.9 °F 56% 29.94 in 10.0 mi SSW 10.4 mph - N/A   Clear
6:54 PM 80.1 °F 82.1 °F 66.0 °F 62% 29.94 in 10.0 mi SSW 8.1 mph - N/A   Clear
7:54 PM 78.1 °F - 66.0 °F 66% 29.94 in 10.0 mi SSW 5.8 mph - N/A   Clear
8:54 PM 77.0 °F - 66.9 °F 71% 29.95 in 10.0 mi South 5.8 mph - N/A   Clear
9:54 PM 75.0 °F - 66.0 °F 73% 29.95 in 10.0 mi South 6.9 mph - N/A   Clear
10:54 PM 75.0 °F - 66.0 °F 73% 29.95 in 10.0 mi SSW 9.2 mph - N/A   Clear
11:54 PM 73.9 °F - 66.0 °F 76% 29.94 in 10.0 mi SSW 9.2 mph - N/A   Clear